User: anonymous   Login
Location: Unspecified
(0.0000°N, 0.0000°E)
Time: 14:24:41
(UTC+00:00)
Language:

NNS O-31 - Orbit

View from above orbital plane
View from above orbital plane
View from above satellite
View from above satellite

Ground track
Ground track

The orbit data is extracted from the following two-line orbital elements,

1 19420U 88074B   18171.53570309 +.00000033 +00000-0 +39301-4 0  9999
2 19420 089.9871 018.5256 0096459 111.7495 277.9809 13.42202384459973
Epoch (UTC): 20 June 2018 12:51:24
Eccentricity: 0.0096459
inclination: 89.9871°
perigee height: 1029 km
apogee height: 1173 km
right ascension of ascending node: 18.5256°
argument of perigee: 111.7495°
revolutions per day: 13.42202384
mean anomaly at epoch: 277.9809°
orbit number at epoch: 45997

The dashed part of the orbit path shows where the satellite is in the earth's shadow,  

DLR